EW7645 Weather Reports


Display with metric or nautical units.
time (UTC)temp
F
wind
direction
speed
MPH
gust
MPH
rain 1hr
in
rain 24hr
in
rain mn
in
humidity
%
barometer
mb
20221204021516 38 0.0 0.0 0.00 0.00 0.00 53 1019.3
20221204020516 38 0.0 0.0 0.00 0.00 0.00 53 1019.3
20221204015515 39 0.0 0.0 0.00 0.00 0.00 52 1019.4
20221204014516 39 0.0 3.0 0.00 0.00 0.00 52 1019.9
20221204013516 39 0.0 3.0 0.00 0.00 0.00 51 1019.8
20221204012516 40 0.0 0.0 0.00 0.00 0.00 49 1020.2
20221204011516 40 0.0 2.0 0.00 0.00 0.00 48 1020.1
20221204010516 41 0.0 0.0 0.00 0.00 0.00 47 1020.2
20221204005515 41 0.0 0.0 0.00 0.00 0.00 45 1020.1
20221204004516 42 270 1.0 3.0 0.00 0.00 0.00 45 1020.5
20221204003516 43 0.0 0.0 0.00 0.00 0.00 42 1020.1
20221204002515 44 0.0 2.0 0.00 0.00 0.00 42 1020.5
20221204001516 45 0.0 0.0 0.00 0.00 0.00 40 1020.4
20221204000516 46 0.0 2.0 0.00 0.00 0.00 38 1020.8
20221203235536 47 270 1.0 4.0 0.00 0.00 0.00 37 1021.1
20221203234535 48 270 1.0 3.0 0.00 0.00 0.00 36 1021.1
20221203233516 49 0.0 1.0 0.00 0.00 0.00 34 1021.5
20221203232516 50 0.0 0.0 0.00 0.00 0.00 33 1021.4
20221203231516 51 23 1.0 4.0 0.00 0.00 0.00 32 1021.7
20221203230515 51 0.0 0.0 0.00 0.00 0.00 31 1021.5
20221203225516 52 0.0 3.0 0.00 0.00 0.00 30 1021.9
20221203224516 52 23 3.0 6.0 0.00 0.00 0.00 30 1021.9
20221203223516 53 23 1.0 3.0 0.00 0.00 0.00 29 1021.8
20221203222516 53 0.0 4.0 0.00 0.00 0.00 28 1021.7
20221203221516 54 0 3.0 8.0 0.00 0.00 0.00 28 1022.1
20221203220516 54 68 1.0 4.0 0.00 0.00 0.00 32 1022.2
20221203215535 54 0.0 2.0 0.00 0.00 0.00 31 1022.4
20221203214516 54 0.0 2.0 0.00 0.00 0.00 31 1022.4
20221203213516 54 45 1.0 3.0 0.00 0.00 0.00 30 1022.3
20221203212516 53 23 2.0 5.0 0.00 0.00 0.00 29 1022.6
20221203211515 53 23 1.0 3.0 0.00 0.00 0.00 29 1022.8
20221203210516 53 23 1.0 3.0 0.00 0.00 0.00 28 1022.9
20221203205516 53 23 1.0 4.0 0.00 0.00 0.00 28 1023.2
20221203204515 53 0.0 2.0 0.00 0.00 0.00 27 1023.7
20221203203516 52 0.0 2.0 0.00 0.00 0.00 27 1023.4
20221203202516 52 0.0 2.0 0.00 0.00 0.00 28 1023.6
20221203201516 51 0.0 1.0 0.00 0.00 0.00 27 1023.7
20221203200516 50 315 1.0 3.0 0.00 0.00 0.00 27 1023.7
20221203195516 50 315 1.0 3.0 0.00 0.00 0.00 27 1023.5
20221203194536 49 338 1.0 4.0 0.00 0.00 0.00 28 1023.9
20221203193535 48 0.0 2.0 0.00 0.00 0.00 31 1023.7
20221203192536 47 338 1.0 5.0 0.00 0.00 0.00 31 1023.8
20221203191516 46 338 3.0 6.0 0.00 0.00 0.00 33 1024.0
20221203190515 45 315 2.0 5.0 0.00 0.00 0.00 35 1023.8
20221203185516 44 0 3.0 7.0 0.00 0.00 0.00 38 1023.9
20221203184516 42 23 1.0 6.0 0.00 0.00 0.00 42 1023.7
20221203183516 41 0.0 2.0 0.00 0.00 0.00 44 1023.8
20221203182516 40 23 1.0 4.0 0.00 0.00 0.00 47 1023.5
20221203181516 38 23 1.0 5.0 0.00 0.00 0.00 49 1023.8
20221203180516 37 0 1.0 5.0 0.00 0.00 0.00 51 1023.8
20221203175516 35 23 3.0 8.0 0.00 0.00 0.00 53 1023.5
20221203174515 34 45 2.0 5.0 0.00 0.00 0.00 56 1023.2
20221203173516 32 23 3.0 8.0 0.00 0.00 0.00 59 1022.8
20221203172516 31 45 1.0 5.0 0.00 0.00 0.00 62 1023.2
20221203171516 30 0.0 2.0 0.00 0.00 0.00 64 1023.1
20221203170516 29 0.0 2.0 0.00 0.00 0.00 67 1022.8
20221203165516 28 0.0 1.0 0.00 0.00 0.00 70 1022.9
20221203164516 27 0.0 3.0 0.00 0.00 0.00 74 1023.0
20221203163516 26 0.0 0.0 0.00 0.00 0.00 76 1022.6
20221203162516 24 0.0 1.0 0.00 0.00 0.00 80 1022.3
20221203161516 22 0.0 1.0 0.00 0.00 0.00 84 1022.1
20221203160516 21 0.0 3.0 0.00 0.00 0.00 84 1022.3
20221203155516 19 68 1.0 3.0 0.00 0.00 0.00 85 1021.9
20221203154516 18 0.0 2.0 0.00 0.00 0.00 84 1022.0
20221203153516 17 0.0 1.0 0.00 0.00 0.00 84 1022.1
20221203152516 16 0.0 3.0 0.00 0.00 0.00 82 1021.7
20221203151516 15 0.0 0.0 0.00 0.00 0.00 81 1021.8
20221203150515 14 0.0 0.0 0.00 0.00 0.00 81 1021.9
20221203145516 14 0.0 0.0 0.00 0.00 0.00 80 1021.8
20221203144515 14 0.0 0.0 0.00 0.00 0.00 80 1021.7
20221203143516 14 0.0 0.0 0.00 0.00 0.00 79 1021.7
20221203142516 14 0.0 0.0 0.00 0.00 0.00 79 1021.7
20221203141515 13 0.0 0.0 0.00 0.00 0.00 78 1021.8
20221203140516 13 0.0 0.0 0.00 0.00 0.00 78 1021.7
20221203135516 13 0.0 1.0 0.00 0.00 0.00 77 1021.8
20221203134516 14 0.0 0.0 0.00 0.00 0.00 77 1021.7
20221203133516 14 0.0 0.0 0.00 0.00 0.00 77 1021.9
20221203132516 14 0.0 0.0 0.00 0.00 0.00 76 1021.7
20221203131516 14 0.0 0.0 0.00 0.00 0.00 76 1021.4
20221203130516 14 0.0 0.0 0.00 0.00 0.00 75 1021.3
20221203125457 14 0.0 0.0 0.00 0.00 0.00 75 1021.1
20221203124516 14 0.0 0.0 0.00 0.00 0.00 75 1021.5
20221203123516 14 0.0 0.0 0.00 0.00 0.00 74 1021.3
20221203122515 14 0.0 1.0 0.00 0.00 0.00 74 1021.4
20221203121515 14 0.0 0.0 0.00 0.00 0.00 73 1021.0
20221203120516 15 0.0 0.0 0.00 0.00 0.00 73 1021.1
20221203115516 15 0.0 0.0 0.00 0.00 0.00 73 1020.8
20221203114516 15 0.0 0.0 0.00 0.00 0.00 72 1021.0
20221203113516 15 0.0 0.0 0.00 0.00 0.00 72 1021.0
20221203112516 15 0.0 1.0 0.00 0.00 0.00 71 1021.1
20221203111516 15 0.0 0.0 0.00 0.00 0.00 71 1020.9
20221203110516 16 0.0 0.0 0.00 0.00 0.00 70 1021.2
20221203105516 16 0.0 0.0 0.00 0.00 0.00 70 1021.2
20221203104515 16 0.0 0.0 0.00 0.00 0.00 70 1021.2
20221203103515 16 0.0 0.0 0.00 0.00 0.00 69 1021.0
20221203102516 17 0.0 0.0 0.00 0.00 0.00 69 1021.4
20221203101635 17 0.0 0.0 0.00 0.00 0.00 68 1021.3
20221203100516 17 0.0 0.0 0.00 0.00 0.00 68 1021.1
20221203095515 17 0.0 0.0 0.00 0.00 0.00 67 1021.3
20221203094516 17 0.0 0.0 0.00 0.00 0.00 66 1021.1
20221203093515 17 0.0 3.0 0.00 0.00 0.00 65 1021.0
20221203092516 18 0.0 0.0 0.00 0.00 0.00 64 1021.2
20221203091516 18 0.0 0.0 0.00 0.00 0.00 64 1021.1
20221203090516 18 0.0 0.0 0.00 0.00 0.00 63 1020.6
20221203085515 18 0.0 0.0 0.00 0.00 0.00 62 1020.3
20221203084516 19 0.0 0.0 0.00 0.00 0.00 61 1020.5
20221203083516 19 0.0 0.0 0.00 0.00 0.00 60 1020.3
20221203082516 20 0.0 0.0 0.00 0.00 0.00 60 1020.1
20221203081516 20 0.0 0.0 0.00 0.00 0.00 59 1020.0
20221203080516 20 0.0 0.0 0.00 0.00 0.00 59 1019.9
20221203075516 20 0.0 0.0 0.00 0.00 0.00 58 1020.4
20221203074515 21 0.0 0.0 0.00 0.00 0.00 58 1020.9
20221203073515 21 0.0 1.0 0.00 0.00 0.00 58 1021.4
20221203072516 21 0.0 2.0 0.00 0.00 0.00 57 1022.2
20221203071516 22 0.0 1.0 0.00 0.00 0.00 56 1022.4
20221203070516 22 0.0 0.0 0.00 0.00 0.00 54 1021.7
20221203065516 23 0.0 0.0 0.00 0.00 0.00 53 1021.7
20221203064516 23 0.0 0.0 0.00 0.00 0.00 52 1021.6
20221203063516 24 0.0 0.0 0.00 0.00 0.00 52 1021.5
20221203062516 24 0.0 0.0 0.00 0.00 0.00 51 1021.4
20221203061536 24 0.0 0.0 0.00 0.00 0.00 50 1021.4
20221203060516 25 0.0 0.0 0.00 0.00 0.00 49 1021.1
20221203055516 25 0.0 2.0 0.00 0.00 0.00 49 1021.2
20221203054516 25 0.0 0.0 0.00 0.00 0.00 48 1020.8
20221203053516 26 0.0 3.0 0.00 0.00 0.00 48 1020.7
20221203052516 26 0.0 0.0 0.00 0.00 0.00 48 1020.9
20221203051515 26 0.0 1.0 0.00 0.00 0.00 48 1020.2
20221203050516 26 45 1.0 4.0 0.00 0.00 0.00 48 1020.1
20221203045516 27 23 1.0 4.0 0.00 0.00 0.00 48 1020.2
20221203044516 27 68 1.0 3.0 0.00 0.00 0.00 48 1019.6
20221203043516 27 0.0 1.0 0.00 0.00 0.00 48 1019.5
20221203042516 27 90 1.0 3.0 0.00 0.00 0.00 48 1019.4
20221203041516 28 90 1.0 3.0 0.00 0.00 0.00 49 1019.2
20221203040516 28 23 1.0 4.0 0.00 0.00 0.00 49 1019.0
20221203035516 28 0.0 2.0 0.00 0.00 0.00 49 1018.8
20221203034516 28 0.0 1.0 0.00 0.00 0.00 48 1018.8
20221203033516 29 135 1.0 4.0 0.00 0.00 0.00 48 1018.6
20221203032516 29 0.0 2.0 0.00 0.00 0.00 48 1018.6
20221203031516 30 0.0 2.0 0.00 0.00 0.00 47 1018.4
20221203030516 30 0.0 3.0 0.00 0.00 0.00 46 1018.1
20221203025515 30 0.0 3.0 0.00 0.00 0.00 47 1018.0
20221203024516 30 158 2.0 5.0 0.00 0.00 0.00 47 1018.1
20221203023516 31 158 2.0 5.0 0.00 0.00 0.00 46 1018.2
20221203022516 31 158 1.0 4.0 0.00 0.00 0.00 46 1018.0